User: anonymous   Login
Location: Unspecified
(0.0000°N, 0.0000°E)
Time: 20:59:24
(UTC+02:00)
Language:

Cosmos 2237 Rocket - Orbit

View from above orbital plane
View from above orbital plane
View from above satellite
View from above satellite

Ground track
Ground track

The orbit data is extracted from the following two-line orbital elements,

1 22566U 93016B   15244.77435987 +.00000026 +00000-0 +37857-4 0  9998
2 22566 071.0104 000.5274 0008863 038.5582 321.6172 14.14912000158693
Epoch (UTC): 01 September 2015 18:35:04
Eccentricity: 0.0008863
inclination: 71.0104°
perigee height: 836 km
apogee height: 849 km
right ascension of ascending node: 0.5274°
argument of perigee: 38.5582°
revolutions per day: 14.14912000
mean anomaly at epoch: 321.6172°
orbit number at epoch: 15869

The dashed part of the orbit path shows where the satellite is in the earth's shadow,  

DLR